Location: Barcelona
(41.3830°N, 2.1830°E)
Time: 10:26:52
(UTC+01:00)

AO-85 - Visible Passes

Search period start: 21 March 2019 00:00
Search period end: 31 March 2019 00:00
Orbit: 495 x 789 km, 64.8° (Epoch: 14 March)

Date Brightness Start Highest point End Pass type
(mag) Time Alt. Az. Time Alt. Az. Time Alt. Az.
21 Mar ? 19:22:43 10° SW 19:28:05 62° NW 19:33:29 10° NNE visible
21 Mar ? 21:06:44 10° WNW 21:09:36 14° NW 21:12:27 10° N visible
22 Mar ? 19:48:15 10° WSW 19:53:06 32° NW 19:57:57 10° NNE visible
23 Mar ? 20:14:39 10° W 20:18:22 18° NW 20:22:04 10° N visible
24 Mar ? 20:42:36 10° NW 20:43:54 11° NNW 20:45:12 10° NNW visible
26 Mar ? 19:49:53 10° WNW 19:52:37 14° NW 19:55:19 10° N visible
30 Mar ? 23:17:26 10° N 23:17:28 10° N 23:17:28 10° N visible
